QPF
0.09 0.10 0.10 0.10 0.12 0.18 0.22 0.22 0.16 0.11 0.08 0.06 0.03 0.02 0.02 0.02 0.02 0.02 0.02 0.02 0.01 0.01 0.01 0.01 0.01 0.01 0.01 0.01 0.01 0.01 0.01 0.00 0.00 0.00 0.00 0.00 0.00 0.00 0.00 0.00 0.00 0.00 0.00
0.09 0.08 0.09 0.11 0.12 0.12 0.13 0.14 0.11 0.09 0.07 0.05 0.03 0.03 0.02 0.02 0.02 0.02 0.01 0.01 0.01 0.00 0.00 0.00 0.00 0.00 0.00 0.00 0.00 0.00 0.00 0.00 0.00 0.00 0.00 0.00 0.00 0.00 0.00 0.00 0.00 0.00 0.00
0.08 0.08 0.08 0.08 0.07 0.07 0.07 0.07 0.08 0.07 0.07 0.05 0.04 0.04 0.04 0.03 0.02 0.02 0.02 0.01 0.01 0.00 0.00 0.00 0.00 0.00 0.00 0.00 0.00 0.00 0.00 0.00 0.00 0.00 0.00 0.00 0.00 0.00 0.00 0.00 0.00 0.00 0.00
0.08 0.08 0.09 0.09 0.08 0.07 0.06 0.05 0.05 0.05 0.05 0.04 0.04 0.04 0.03 0.03 0.02 0.02 0.01 0.01 0.00 0.00 0.00 0.00 0.00 0.00 0.00 0.00 0.00 0.00 0.00 0.01 0.01 0.00 0.00 0.01 0.01 0.01 0.01 0.01 0.01 0.01 0.01
0.09 0.10 0.11 0.11 0.09 0.07 0.06 0.05 0.04 0.03 0.02 0.03 0.02 0.02 0.02 0.02 0.02 0.01 0.01 0.00 0.00 0.00 0.00 0.00 0.00 0.00 0.00 0.00 0.00 0.00 0.00 0.01 0.01 0.01 0.02 0.02 0.03 0.03 0.02 0.01 0.01 0.02 0.02
0.10 0.10 0.11 0.10 0.08 0.06 0.05 0.04 0.04 0.03 0.03 0.03 0.02 0.01 0.01 0.00 0.00 0.00 0.00 0.00 0.00 0.00 0.00 0.00 0.00 0.00 0.00 0.00 0.00 0.00 0.00 0.00 0.00 0.01 0.03 0.04 0.04 0.03 0.02 0.01 0.02 0.03 0.04
0.09 0.09 0.08 0.07 0.06 0.05 0.04 0.03 0.03 0.03 0.02 0.01 0.01 0.01 0.00 0.00 0.00 0.00 0.00 0.01 0.01 0.01 0.01 0.01 0.00 0.00 0.00 0.00 0.00 0.00 0.00 0.00 0.00 0.00 0.02 0.02 0.02 0.02 0.01 0.02 0.03 0.03 0.05
0.07 0.05 0.05 0.04 0.03 0.02 0.03 0.03 0.03 0.03 0.03 0.02 0.01 0.01 0.00 0.00 0.00 0.00 0.00 0.01 0.01 0.01 0.01 0.01 0.02 0.01 0.00 0.00 0.00 0.01 0.02 0.02 0.00 0.00 0.01 0.01 0.00 0.00 0.00 0.01 0.02 0.04 0.08
0.07 0.05 0.04 0.03 0.03 0.02 0.03 0.03 0.03 0.04 0.03 0.02 0.01 0.01 0.00 0.00 0.00 0.00 0.00 0.02 0.02 0.01 0.00 0.00 0.01 0.01 0.00 0.00 0.01 0.03 0.03 0.03 0.00 0.00 0.00 0.00 0.00 0.00 0.00 0.00 0.03 0.05 0.08
0.06 0.06 0.04 0.04 0.04 0.03 0.03 0.03 0.03 0.03 0.02 0.02 0.02 0.02 0.01 0.00 0.00 0.00 0.00 0.01 0.03 0.02 0.02 0.01 0.00 0.00 0.00 0.00 0.01 0.02 0.02 0.02 0.01 0.02 0.02 0.02 0.02 0.02 0.00 0.02 0.06 0.06 0.06
0.02 0.03 0.03 0.03 0.03 0.03 0.03 0.03 0.02 0.03 0.03 0.02 0.02 0.01 0.01 0.00 0.00 0.00 0.00 0.01 0.02 0.02 0.02 0.01 0.00 0.00 0.00 0.00 0.00 0.01 0.01 0.00 0.01 0.02 0.02 0.02 0.02 0.03 0.03 0.04 0.05 0.06 0.05
0.01 0.02 0.02 0.02 0.01 0.02 0.03 0.03 0.03 0.03 0.03 0.03 0.03 0.02 0.01 0.00 0.00 0.00 0.00 0.00 0.00 0.02 0.02 0.00 0.00 0.00 0.00 0.00 0.00 0.00 0.00 0.00 0.01 0.01 0.01 0.01 0.00 0.01 0.01 0.02 0.03 0.04 0.05
0.02 0.03 0.03 0.02 0.02 0.03 0.04 0.04 0.03 0.03 0.03 0.03 0.03 0.02 0.02 0.02 0.00 0.00 0.00 0.00 0.00 0.01 0.01 0.00 0.00 0.00 0.00 0.00 0.00 0.00 0.00 0.00 0.01 0.01 0.01 0.00 0.00 0.01 0.01 0.01 0.02 0.03 0.03
0.04 0.03 0.03 0.04 0.04 0.03 0.03 0.02 0.03 0.03 0.02 0.02 0.01 0.01 0.02 0.02 0.01 0.01 0.01 0.00 0.00 0.00 0.00 0.00 0.00 0.00 0.00 0.00 0.00 0.00 0.00 0.00 0.00 0.01 0.01 0.00 0.00 0.00 0.00 0.01 0.01 0.03 0.03
0.04 0.03 0.04 0.05 0.04 0.03 0.01 0.01 0.01 0.01 0.01 0.01 0.02 0.02 0.02 0.01 0.00 0.00 0.00 0.01 0.00 0.00 0.00 0.01 0.02 0.01 0.01 0.01 0.01 0.00 0.00 0.00 0.00 0.00 0.00 0.00 0.00 0.00 0.00 0.00 0.00 0.01 0.02
0.04 0.04 0.04 0.04 0.03 0.02 0.01 0.00 0.00 0.00 0.00 0.00 0.00 0.00 0.00 0.00 0.00 0.00 0.00 0.00 0.00 0.00 0.00 0.02 0.02 0.01 0.01 0.01 0.01 0.00 0.00 0.00 0.00 0.00 0.00 0.00 0.00 0.00 0.00 0.00 0.00 0.00 0.01
0.04 0.03 0.02 0.02 0.02 0.01 0.00 0.01 0.01 0.00 0.00 0.00 0.00 0.00 0.00 0.00 0.00 0.00 0.00 0.00 0.00 0.00 0.00 0.01 0.01 0.01 0.01 0.01 0.00 0.00 0.00 0.00 0.00 0.00 0.00 0.00 0.00 0.00 0.00 0.00 0.00 0.00 0.00
0.01 0.01 0.01 0.01 0.01 0.00 0.00 0.00 0.01 0.02 0.02 0.01 0.00 0.00 0.00 0.00 0.00 0.00 0.00 0.00 0.00 0.00 0.00 0.00 0.00 0.00 0.00 0.00 0.00 0.00 0.00 0.00 0.00 0.00 0.00 0.00 0.00 0.00 0.00 0.00 0.00 0.00 0.00
0.01 0.00 0.00 0.00 0.00 0.00 0.00 0.00 0.00 0.01 0.03 0.04 0.02 0.01 0.00 0.00 0.00 0.00 0.00 0.00 0.00 0.00 0.00 0.00 0.00 0.00 0.00 0.00 0.00 0.00 0.00 0.00 0.00 0.00 0.00 0.00 0.00 0.00 0.00 0.00 0.00 0.00 0.00
0.01 0.00 0.00 0.00 0.00 0.00 0.00 0.00 0.00 0.01 0.02 0.03 0.03 0.01 0.00 0.00 0.01 0.00 0.00 0.00 0.00 0.00 0.00 0.00 0.00 0.00 0.00 0.00 0.00 0.00 0.00 0.00 0.00 0.00 0.00 0.00 0.00 0.00 0.00 0.00 0.00 0.00 0.00
0.01 0.00 0.00 0.00 0.00 0.00 0.00 0.00 0.00 0.00 0.01 0.02 0.01 0.00 0.00 0.00 0.01 0.00 0.00 0.00 0.00 0.00 0.00 0.00 0.00 0.00 0.00 0.00 0.00 0.00 0.00 0.00 0.00 0.00 0.00 0.00 0.00 0.00 0.00 0.00 0.00 0.00 0.00
0.00 0.00 0.00 0.00 0.00 0.00 0.00 0.00 0.00 0.00 0.01 0.01 0.00 0.00 0.00 0.00 0.00 0.00 0.00 0.00 0.00 0.00 0.00 0.00 0.00 0.00 0.00 0.00 0.00 0.00 0.00 0.00 0.00 0.00 0.00 0.00 0.00 0.00 0.00 0.00 0.00 0.00 0.00
0.00 0.00 0.00 0.00 0.00 0.00 0.00 0.00 0.00 0.00 0.00 0.00 0.00 0.00 0.00 0.00 0.00 0.00 0.00 0.00 0.00 0.00 0.00 0.00 0.00 0.00 0.00 0.00 0.00 0.00 0.00 0.00 0.00 0.00 0.00 0.00 0.00 0.00 0.00 0.00 0.00 0.00 0.00
0.00 0.00 0.00 0.00 0.00 0.00 0.00 0.00 0.00 0.00 0.00 0.00 0.00 0.00 0.00 0.00 0.00 0.00 0.00 0.00 0.00 0.00 0.00 0.00 0.00 0.00 0.00 0.00 0.00 0.00 0.00 0.00 0.00 0.00 0.00 0.00 0.00 0.00 0.00 0.00 0.00 0.00 0.00
0.00 0.00 0.00 0.00 0.00 0.00 0.00 0.00 0.00 0.00 0.00 0.00 0.00 0.00 0.00 0.00 0.00 0.00 0.00 0.00 0.00 0.00 0.00 0.00 0.00 0.00 0.00 0.00 0.00 0.00 0.00 0.00 0.00 0.00 0.00 0.00 0.00 0.00 0.00 0.00 0.00 0.00 0.00
0.00 0.00 0.00 0.00 0.00 0.00 0.00 0.00 0.00 0.00 0.00 0.00 0.00 0.00 0.00 0.00 0.00 0.00 0.00 0.00 0.00 0.00 0.00 0.00 0.00 0.00 0.00 0.00 0.00 0.00 0.00 0.00 0.00 0.00 0.00 0.00 0.00 0.00 0.00 0.00 0.00 0.00 0.00
MSLP
1014.20 1014.82 1015.50 1016.22 1016.93 1017.60 1018.19 1018.69 1019.09 1019.40 1019.62 1019.77 1019.90 1020.01 1020.15 1020.32 1020.55 1020.82 1021.14 1021.48 1021.81 1022.12 1022.37 1022.57 1022.71 1022.79 1022.84 1022.87 1022.89 1022.93 1022.99 1023.08 1023.17 1023.27 1023.35 1023.41 1023.45 1023.46 1023.45 1023.44 1023.45 1023.47 1023.52
1015.50 1016.01 1016.57 1017.16 1017.74 1018.30 1018.80 1019.23 1019.58 1019.85 1020.05 1020.19 1020.31 1020.42 1020.56 1020.75 1020.99 1021.28 1021.61 1021.97 1022.31 1022.63 1022.89 1023.08 1023.20 1023.27 1023.28 1023.27 1023.27 1023.27 1023.29 1023.34 1023.40 1023.46 1023.50 1023.51 1023.49 1023.45 1023.39 1023.32 1023.27 1023.24 1023.25
1016.78 1017.18 1017.61 1018.07 1018.53 1018.97 1019.39 1019.75 1020.06 1020.31 1020.50 1020.64 1020.76 1020.88 1021.02 1021.21 1021.44 1021.73 1022.06 1022.41 1022.75 1023.06 1023.32 1023.51 1023.64 1023.69 1023.71 1023.69 1023.67 1023.66 1023.66 1023.68 1023.71 1023.73 1023.73 1023.70 1023.63 1023.53 1023.41 1023.29 1023.17 1023.09 1023.04
1017.93 1018.24 1018.56 1018.89 1019.24 1019.59 1019.93 1020.25 1020.53 1020.77 1020.97 1021.13 1021.27 1021.40 1021.55 1021.73 1021.94 1022.21 1022.51 1022.83 1023.15 1023.45 1023.70 1023.89 1024.02 1024.09 1024.11 1024.10 1024.08 1024.07 1024.06 1024.07 1024.07 1024.07 1024.03 1023.96 1023.85 1023.70 1023.53 1023.35 1023.18 1023.03 1022.93
1018.91 1019.13 1019.35 1019.59 1019.85 1020.12 1020.41 1020.70 1020.98 1021.24 1021.47 1021.67 1021.83 1021.98 1022.13 1022.30 1022.49 1022.72 1022.98 1023.26 1023.54 1023.81 1024.04 1024.23 1024.36 1024.44 1024.48 1024.49 1024.48 1024.47 1024.46 1024.45 1024.44 1024.41 1024.35 1024.25 1024.10 1023.92 1023.72 1023.49 1023.28 1023.09 1022.94
1019.69 1019.85 1020.00 1020.16 1020.35 1020.57 1020.83 1021.11 1021.41 1021.69 1021.96 1022.20 1022.41 1022.58 1022.74 1022.89 1023.06 1023.24 1023.45 1023.68 1023.92 1024.15 1024.36 1024.54 1024.67 1024.76 1024.81 1024.83 1024.83 1024.82 1024.81 1024.78 1024.75 1024.70 1024.62 1024.50 1024.34 1024.14 1023.92 1023.68 1023.45 1023.23 1023.04
1020.32 1020.43 1020.52 1020.62 1020.76 1020.95 1021.19 1021.47 1021.78 1022.10 1022.41 1022.70 1022.94 1023.14 1023.31 1023.45 1023.60 1023.74 1023.90 1024.08 1024.27 1024.47 1024.65 1024.81 1024.94 1025.04 1025.09 1025.11 1025.11 1025.09 1025.06 1025.02 1024.96 1024.89 1024.79 1024.66 1024.50 1024.31 1024.09 1023.85 1023.62 1023.39 1023.18
1020.83 1020.90 1020.95 1021.01 1021.11 1021.27 1021.49 1021.77 1022.10 1022.45 1022.79 1023.11 1023.38 1023.61 1023.79 1023.93 1024.05 1024.17 1024.30 1024.44 1024.59 1024.75 1024.91 1025.06 1025.17 1025.26 1025.31 1025.33 1025.31 1025.27 1025.21 1025.13 1025.05 1024.95 1024.83 1024.70 1024.54 1024.36 1024.16 1023.95 1023.73 1023.51 1023.31
1021.26 1021.30 1021.32 1021.35 1021.42 1021.56 1021.77 1022.04 1022.36 1022.72 1023.08 1023.42 1023.72 1023.96 1024.15 1024.30 1024.42 1024.52 1024.62 1024.73 1024.86 1025.00 1025.14 1025.26 1025.37 1025.44 1025.48 1025.47 1025.42 1025.35 1025.25 1025.14 1025.02 1024.89 1024.75 1024.61 1024.45 1024.29 1024.12 1023.93 1023.74 1023.54 1023.35
1021.62 1021.65 1021.65 1021.67 1021.72 1021.83 1022.02 1022.27 1022.59 1022.94 1023.30 1023.65 1023.96 1024.22 1024.42 1024.58 1024.69 1024.79 1024.88 1024.98 1025.09 1025.21 1025.33 1025.44 1025.53 1025.58 1025.60 1025.56 1025.48 1025.37 1025.22 1025.07 1024.90 1024.74 1024.58 1024.42 1024.27 1024.11 1023.96 1023.80 1023.63 1023.46 1023.28
1021.92 1021.94 1021.95 1021.96 1022.00 1022.10 1022.26 1022.50 1022.80 1023.14 1023.50 1023.85 1024.16 1024.43 1024.64 1024.80 1024.93 1025.03 1025.11 1025.20 1025.30 1025.41 1025.51 1025.60 1025.66 1025.69 1025.68 1025.61 1025.49 1025.33 1025.15 1024.95 1024.74 1024.54 1024.35 1024.18 1024.01 1023.87 1023.72 1023.58 1023.43 1023.28 1023.11
1022.13 1022.17 1022.20 1022.22 1022.27 1022.36 1022.52 1022.75 1023.03 1023.36 1023.71 1024.05 1024.37 1024.64 1024.87 1025.04 1025.17 1025.27 1025.35 1025.43 1025.51 1025.59 1025.67 1025.73 1025.77 1025.77 1025.72 1025.62 1025.47 1025.28 1025.06 1024.82 1024.58 1024.34 1024.13 1023.93 1023.76 1023.60 1023.45 1023.31 1023.17 1023.03 1022.87
1022.25 1022.33 1022.39 1022.45 1022.52 1022.63 1022.80 1023.02 1023.31 1023.63 1023.97 1024.32 1024.64 1024.92 1025.15 1025.32 1025.45 1025.55 1025.62 1025.68 1025.73 1025.77 1025.81 1025.83 1025.83 1025.79 1025.71 1025.58 1025.41 1025.20 1024.95 1024.69 1024.43 1024.17 1023.94 1023.72 1023.53 1023.36 1023.20 1023.06 1022.91 1022.76 1022.59
1022.28 1022.42 1022.53 1022.63 1022.75 1022.89 1023.09 1023.33 1023.62 1023.95 1024.30 1024.65 1024.97 1025.26 1025.49 1025.67 1025.79 1025.87 1025.91 1025.93 1025.93 1025.92 1025.91 1025.88 1025.83 1025.75 1025.64 1025.49 1025.31 1025.09 1024.84 1024.58 1024.31 1024.05 1023.81 1023.58 1023.37 1023.18 1023.01 1022.84 1022.68 1022.51 1022.33
1022.25 1022.45 1022.63 1022.79 1022.96 1023.15 1023.37 1023.64 1023.95 1024.29 1024.65 1025.01 1025.35 1025.63 1025.87 1026.03 1026.14 1026.18 1026.18 1026.15 1026.09 1026.01 1025.93 1025.84 1025.74 1025.63 1025.49 1025.34 1025.16 1024.95 1024.72 1024.48 1024.23 1023.98 1023.74 1023.51 1023.29 1023.08 1022.89 1022.69 1022.51 1022.32 1022.12
1022.21 1022.47 1022.70 1022.92 1023.14 1023.37 1023.63 1023.93 1024.26 1024.62 1024.99 1025.36 1025.69 1025.98 1026.21 1026.36 1026.43 1026.44 1026.38 1026.28 1026.15 1026.01 1025.86 1025.71 1025.56 1025.42 1025.27 1025.12 1024.96 1024.79 1024.60 1024.40 1024.19 1023.96 1023.74 1023.51 1023.28 1023.05 1022.83 1022.61 1022.40 1022.18 1021.95
1022.18 1022.49 1022.77 1023.03 1023.28 1023.55 1023.83 1024.15 1024.49 1024.86 1025.23 1025.60 1025.94 1026.22 1026.43 1026.56 1026.60 1026.57 1026.46 1026.30 1026.10 1025.89 1025.68 1025.48 1025.30 1025.15 1025.01 1024.88 1024.76 1024.64 1024.51 1024.36 1024.19 1024.00 1023.80 1023.57 1023.34 1023.09 1022.84 1022.59 1022.33 1022.08 1021.82
1022.19 1022.52 1022.83 1023.11 1023.38 1023.65 1023.94 1024.26 1024.60 1024.96 1025.33 1025.69 1026.01 1026.28 1026.47 1026.58 1026.60 1026.53 1026.38 1026.17 1025.93 1025.68 1025.43 1025.21 1025.02 1024.87 1024.76 1024.68 1024.61 1024.55 1024.48 1024.39 1024.27 1024.11 1023.92 1023.70 1023.45 1023.18 1022.89 1022.60 1022.30 1022.01 1021.71
1022.24 1022.57 1022.87 1023.15 1023.41 1023.68 1023.95 1024.25 1024.56 1024.90 1025.25 1025.59 1025.89 1026.14 1026.32 1026.41 1026.41 1026.32 1026.16 1025.93 1025.68 1025.41 1025.16 1024.95 1024.78 1024.66 1024.60 1024.57 1024.57 1024.57 1024.56 1024.52 1024.44 1024.31 1024.12 1023.89 1023.61 1023.30 1022.97 1022.63 1022.28 1021.94 1021.61
1022.29 1022.60 1022.88 1023.13 1023.37 1023.60 1023.84 1024.10 1024.38 1024.69 1025.00 1025.31 1025.59 1025.82 1025.99 1026.08 1026.08 1025.99 1025.84 1025.63 1025.39 1025.15 1024.93 1024.76 1024.64 1024.58 1024.57 1024.62 1024.68 1024.74 1024.78 1024.78 1024.72 1024.60 1024.40 1024.14 1023.82 1023.46 1023.07 1022.66 1022.26 1021.87 1021.50
1022.30 1022.58 1022.82 1023.04 1023.24 1023.43 1023.63 1023.85 1024.09 1024.35 1024.63 1024.91 1025.17 1025.38 1025.55 1025.64 1025.65 1025.60 1025.47 1025.31 1025.12 1024.94 1024.79 1024.68 1024.64 1024.65 1024.72 1024.83 1024.95 1025.07 1025.15 1025.17 1025.11 1024.97 1024.74 1024.43 1024.05 1023.63 1023.17 1022.71 1022.25 1021.81 1021.39
1022.22 1022.46 1022.66 1022.85 1023.01 1023.17 1023.33 1023.52 1023.72 1023.95 1024.20 1024.45 1024.69 1024.90 1025.07 1025.17 1025.22 1025.20 1025.13 1025.03 1024.92 1024.82 1024.75 1024.73 1024.77 1024.87 1025.02 1025.19 1025.36 1025.51 1025.61 1025.63 1025.56 1025.38 1025.10 1024.74 1024.29 1023.80 1023.28 1022.75 1022.23 1021.75 1021.30
1022.02 1022.22 1022.40 1022.56 1022.70 1022.85 1023.00 1023.16 1023.34 1023.55 1023.77 1024.01 1024.24 1024.45 1024.62 1024.75 1024.83 1024.86 1024.86 1024.83 1024.80 1024.79 1024.81 1024.89 1025.01 1025.19 1025.40 1025.62 1025.83 1026.00 1026.09 1026.10 1026.00 1025.78 1025.45 1025.01 1024.51 1023.95 1023.37 1022.79 1022.23 1021.71 1021.25
1021.70 1021.88 1022.04 1022.20 1022.34 1022.49 1022.64 1022.81 1022.99 1023.19 1023.41 1023.63 1023.85 1024.06 1024.25 1024.39 1024.51 1024.59 1024.64 1024.69 1024.73 1024.81 1024.92 1025.07 1025.27 1025.51 1025.77 1026.03 1026.26 1026.43 1026.52 1026.50 1026.36 1026.09 1025.71 1025.23 1024.67 1024.06 1023.43 1022.82 1022.24 1021.71 1021.24
1021.30 1021.47 1021.64 1021.80 1021.97 1022.13 1022.30 1022.48 1022.68 1022.89 1023.11 1023.33 1023.55 1023.76 1023.95 1024.11 1024.25 1024.36 1024.46 1024.56 1024.68 1024.81 1024.99 1025.21 1025.47 1025.75 1026.05 1026.33 1026.57 1026.73 1026.81 1026.76 1026.58 1026.28 1025.86 1025.34 1024.75 1024.12 1023.47 1022.85 1022.26 1021.74 1021.29
1020.89 1021.05 1021.22 1021.41 1021.60 1021.79 1021.99 1022.20 1022.41 1022.64 1022.86 1023.09 1023.31 1023.51 1023.70 1023.87 1024.02 1024.15 1024.28 1024.42 1024.57 1024.76 1024.98 1025.25 1025.54 1025.86 1026.17 1026.47 1026.71 1026.86 1026.92 1026.86 1026.66 1026.34 1025.90 1025.37 1024.77 1024.13 1023.49 1022.88 1022.32 1021.81 1021.39
Thickness
5625 5626 5627 5625 5625 5624 5622 5621 5620 5621 5621 5620 5620 5619 5618 5617 5617 5617 5615 5614 5612 5611 5609 5607 5605 5605 5604 5603 5601 5598 5595 5591 5584 5579 5576 5571 5567 5563 5559 5557 5555 5552 5546
5611 5613 5613 5612 5612 5611 5609 5609 5610 5610 5609 5609 5610 5610 5609 5608 5608 5607 5606 5604 5602 5600 5599 5597 5596 5594 5592 5590 5588 5586 5582 5579 5574 5569 5566 5563 5559 5555 5552 5549 5546 5543 5539
5599 5600 5599 5598 5598 5598 5598 5598 5599 5599 5599 5599 5599 5599 5598 5597 5597 5596 5595 5593 5592 5591 5589 5586 5584 5582 5579 5577 5576 5573 5571 5569 5565 5560 5556 5554 5550 5547 5543 5541 5538 5534 5532
5587 5587 5586 5585 5585 5586 5587 5588 5589 5589 5588 5588 5588 5588 5588 5587 5586 5585 5584 5582 5582 5580 5578 5574 5571 5569 5566 5565 5564 5561 5559 5556 5554 5551 5547 5544 5540 5537 5533 5530 5527 5526 5524
5576 5576 5575 5574 5575 5575 5576 5577 5578 5578 5578 5578 5578 5577 5577 5574 5572 5572 5573 5573 5571 5569 5567 5564 5560 5558 5555 5553 5551 5548 5546 5544 5542 5538 5535 5531 5528 5525 5522 5520 5518 5517 5517
5566 5565 5564 5565 5565 5565 5565 5566 5566 5566 5567 5567 5566 5565 5564 5561 5559 5560 5562 5562 5561 5559 5557 5555 5551 5549 5546 5543 5541 5538 5535 5532 5529 5526 5524 5520 5517 5515 5514 5513 5511 5509 5507
5557 5556 5556 5556 5556 5556 5557 5556 5556 5557 5556 5555 5554 5552 5550 5549 5549 5550 5550 5552 5551 5550 5548 5546 5546 5540 5536 5534 5532 5530 5526 5523 5519 5517 5515 5512 5510 5508 5507 5505 5504 5502 5501
5548 5548 5548 5548 5548 5547 5547 5548 5547 5547 5546 5546 5544 5542 5541 5539 5539 5540 5540 5543 5543 5541 5539 5537 5533 5528 5524 5523 5523 5523 5521 5517 5514 5511 5509 5507 5506 5503 5501 5499 5499 5499 5499
5540 5541 5541 5541 5541 5540 5540 5540 5539 5539 5538 5537 5536 5534 5532 5530 5529 5530 5531 5534 5534 5532 5529 5525 5523 5518 5515 5514 5515 5514 5513 5510 5508 5506 5504 5502 5501 5500 5497 5494 5495 5494 5493
5534 5535 5535 5535 5534 5533 5533 5533 5533 5533 5532 5531 5529 5527 5525 5523 5521 5522 5523 5526 5525 5523 5519 5515 5511 5509 5507 5506 5505 5505 5503 5501 5500 5500 5500 5500 5499 5497 5495 5492 5491 5489 5489
5530 5529 5529 5528 5528 5527 5527 5527 5527 5526 5525 5524 5521 5519 5518 5515 5513 5514 5514 5516 5516 5515 5512 5508 5504 5502 5501 5499 5498 5497 5494 5493 5494 5495 5496 5497 5496 5494 5493 5491 5490 5488 5486
5524 5523 5523 5524 5525 5523 5522 5521 5520 5520 5518 5516 5515 5512 5510 5508 5507 5506 5506 5506 5506 5506 5504 5502 5499 5497 5495 5494 5493 5492 5491 5490 5491 5492 5492 5492 5491 5490 5490 5490 5489 5488 5487
5519 5518 5518 5519 5518 5517 5517 5515 5515 5515 5513 5511 5510 5507 5505 5503 5500 5499 5499 5499 5499 5498 5497 5495 5494 5492 5490 5490 5489 5488 5487 5488 5488 5488 5487 5487 5488 5489 5489 5489 5488 5488 5488
5514 5514 5513 5513 5512 5511 5510 5509 5508 5508 5507 5507 5505 5503 5500 5497 5495 5494 5494 5493 5492 5491 5491 5490 5489 5489 5488 5486 5486 5486 5486 5486 5484 5484 5484 5484 5486 5486 5487 5487 5487 5487 5486
5510 5510 5509 5507 5505 5503 5500 5497 5497 5493 5494 5497 5497 5496 5494 5489 5483 5483 5485 5485 5484 5482 5483 5486 5487 5488 5487 5487 5487 5486 5485 5483 5482 5481 5481 5481 5482 5483 5484 5485 5485 5486 5485
5506 5506 5505 5503 5501 5499 5496 5491 5486 5486 5485 5486 5485 5485 5482 5480 5479 5480 5480 5479 5479 5479 5480 5483 5484 5484 5483 5482 5481 5481 5480 5479 5477 5477 5477 5478 5479 5480 5481 5483 5484 5484 5484
5503 5502 5502 5500 5498 5497 5495 5491 5486 5481 5479 5479 5478 5478 5477 5476 5476 5476 5476 5476 5477 5476 5477 5480 5480 5479 5478 5477 5477 5476 5475 5474 5474 5474 5475 5475 5476 5477 5479 5480 5482 5482 5483
5500 5499 5498 5497 5496 5494 5493 5491 5488 5485 5481 5478 5474 5473 5473 5473 5473 5473 5473 5474 5477 5478 5478 5478 5477 5476 5474 5473 5472 5471 5470 5470 5471 5471 5472 5473 5474 5475 5476 5478 5480 5482 5483
5499 5498 5496 5496 5495 5493 5492 5490 5488 5486 5483 5479 5476 5473 5472 5472 5472 5473 5472 5473 5478 5479 5478 5476 5474 5473 5471 5470 5469 5468 5468 5468 5468 5468 5470 5471 5472 5474 5475 5477 5480 5483 5484
5497 5494 5494 5494 5494 5492 5490 5489 5487 5485 5483 5480 5478 5478 5476 5475 5475 5477 5476 5477 5478 5476 5474 5473 5471 5470 5469 5467 5467 5466 5466 5466 5466 5467 5467 5468 5470 5472 5475 5477 5480 5483 5486
5499 5495 5492 5493 5493 5492 5490 5489 5487 5486 5484 5481 5480 5478 5476 5479 5480 5480 5480 5478 5476 5474 5471 5469 5469 5469 5467 5465 5463 5462 5463 5463 5463 5463 5464 5465 5468 5471 5474 5478 5482 5485 5487
5502 5500 5498 5497 5495 5493 5491 5490 5489 5487 5486 5484 5482 5481 5479 5479 5482 5482 5480 5478 5476 5473 5470 5468 5467 5466 5463 5461 5460 5460 5460 5459 5459 5458 5460 5463 5467 5471 5476 5479 5483 5486 5488
5506 5505 5502 5500 5497 5492 5493 5492 5491 5490 5489 5487 5487 5486 5484 5484 5484 5482 5481 5478 5476 5473 5470 5468 5466 5464 5461 5459 5459 5458 5456 5454 5454 5456 5458 5462 5467 5471 5476 5480 5484 5487 5489
5511 5509 5506 5504 5501 5499 5497 5495 5494 5493 5492 5491 5490 5489 5488 5486 5485 5483 5482 5480 5477 5475 5472 5469 5467 5464 5462 5460 5459 5456 5454 5454 5455 5456 5458 5461 5466 5473 5478 5482 5485 5489 5490
5517 5515 5512 5509 5506 5504 5502 5500 5499 5498 5497 5496 5494 5493 5493 5491 5489 5487 5485 5483 5480 5477 5475 5472 5469 5467 5464 5462 5459 5457 5457 5457 5458 5459 5461 5464 5469 5474 5479 5483 5486 5490 5491
5524 5521 5518 5515 5513 5510 5508 5506 5504 5503 5501 5500 5499 5498 5496 5495 5493 5491 5489 5486 5484 5482 5478 5476 5473 5470 5467 5464 5462 5461 5461 5462 5463 5464 5466 5468 5472 5477 5480 5483 5487 5489 5491